Aérodrome :
LOGIN :

S'inscrire | Disclaimer

   EN    FR    IT 

 










Légende :    VFR   VFR Marginal   IFR   IFR Intensif   IFR Très Intensif
Visi : 
Plafond : 
>= 8 km
>= 3000ft
5 à 8 km
1000 à 3000 ft
1500m à 5 km
500 à 1000 ft
800 à 1500m
200 à 500 ft
< 800m
< 200 ft
Symboles :   Orages  Brouillard  Fortes neiges  Fortes précipitations  Vent > 20 kt
SIGMETs :   Divers  Orages  Givrage  Turbulence  Onde Orograph.  Cendres Volcan.







- Altitude de l'aérodrome : 138 ft
- Code IATA : RLG


ETNL - Rostock Laage

DERNIER METAR :
  • 231120Z 31018KT 9999 FEW029 BKN038 15/08 Q1018 BLU

METARs EXPIRÉS :
  • 231020Z 31018KT 9999 FEW033 BKN040 16/08 Q1017 BLU
  • 230920Z 31016G26KT 9999 SCT030 BKN040 15/07 Q1017 BLU

TAF TAF ETNL
Valide du 23 à 11h jusqu'au 23 à 23h UTC


231000Z 2311/2323 30015G25KT 9999 NSW FEW020 BKN040
TEMPO 2311/2323 31018G30KT 8000 -RA BKN020 BY ETGL
Pas de NOTAMs connus pour ce terrain.



MET'MAP, la Météo Aéronautique d'un coup d'oeil ! - Copyright ORBIFLY Décembre 2007 - Disclaimer

ORBIFLY MET'MAP TEAM :

Programmation & Développement : Alexandra Zaïnal
Conception & Développement : Baudouin d'Aumeries
Co-Programmation & Développement : Marc-Olivier Méhu
Soutien technique & logistique : Manuel Goepfert

Contact : metmap@orbifly.com




SOURCES & CREDITS :

   NOAA